Powrót do katalogu

ARTEMIS P2

THEMIS C

AktywnyNaukaLPO
NORAD 30582·PAYLOAD·🇺🇸 United States

Wystrzelony Feb 17, 2007 z Cape Canaveral Space Force Station

Loading…

TLE

NieaktualneSource: Space-Track

Epoka: Apr 5, 2010, 22:45 UTC

1 30582U 07004C   10095.94791667 -.00028999  00000-0  99999-4 0  9990
2 30582 025.5707 349.3222 6489751 071.1237 089.1304 00.02043025  5772

Śledź ARTEMIS P2 w czasie rzeczywistym z AllMySat

Download on the App Store